[[{"header":{"parameterUnit":"m.s-1","parameterCategory":1,"la1":30.2991,"la2":30.254,"lo1":-89.0895,"lo2":-89.0444,"dy":0.0017,"dx":0.0017,"nx":28,"ny":28,"refTime":"2023-11-02T09:00:00:Z","depth":0,"parameterNumber":2,"parameterNumberName":"U-component_of_WINDS"},"data":[0,0,0,0,0,0,0,0,0,0,0,0,0,0,0,0,0,0,0,0,0,0,0,0,0,0,0,0,0,0,0,0,0,0,0,0,0,0,0,0,0,0,0,0,0,0,0,0,0,0,0,0,0,0,0,0,0,0,-5.8266,-5.8267,0,-5.8352,-5.8353,-5.8354,-5.8213,-5.8208,-5.8204,-5.8199,-5.8282,-5.8289,-5.8296,0,0,0,0,0,0,0,0,0,0,0,0,0,-5.7973,-5.7979,-5.8266,-5.8267,-5.8268,-5.8352,-5.8353,-5.8354,-5.8214,-5.8208,-5.8202,-5.8197,-5.828,-5.8288,-5.8296,0,0,0,0,0,0,0,0,0,0,0,0,0,-5.8084,-5.7981,-5.8266,-5.8208,-5.8204,-5.8352,-5.8353,-5.8355,-5.8215,-5.8208,-5.8201,-5.8194,-5.8278,-5.8287,-5.8297,-5.8504,0,0,-5.8328,-5.8332,0,0,0,0,0,0,0,0,-5.8077,-5.8094,-5.8216,-5.8213,-5.8208,-5.8265,-5.828,-5.8405,-5.8217,-5.8211,-5.8199,-5.8191,-5.8282,-5.8291,-5.8323,-5.8508,-5.8511,-5.8329,-5.8335,-5.8339,-5.8342,0,0,0,0,0,0,0,-5.807,-5.809,-5.83,-5.8218,-5.8213,-5.8176,-5.8184,-5.8303,-5.8286,-5.8211,-5.8201,-5.8213,-5.8278,-5.8314,-5.8324,-5.8512,-5.8329,-5.8338,-5.8344,-5.8348,-5.8866,-5.8873,0,0,0,0,0,0,-5.807,-5.8084,-5.8297,-5.8302,-5.8124,-5.8187,-5.8196,-5.8254,-5.8284,-5.8282,-5.8219,-5.8206,-5.83,-5.8312,-5.8326,-5.8567,-5.8339,-5.8349,-5.8354,-5.8858,-5.8868,-5.8876,0,0,0,0,0,0,-5.8064,-5.8091,-5.8294,-5.8191,-5.8214,-5.82,-5.8266,-5.8259,-5.8294,-5.8291,-5.8286,-5.8259,-5.8295,-5.8312,-5.846,-5.8568,-5.8353,-5.8362,-5.8849,-5.8861,-5.8872,-5.9052,0,0,0,0,0,0,-5.8057,-5.8089,-5.8169,-5.8194,-5.822,-5.8429,-5.8273,-5.8266,-5.8313,-5.8297,-5.8327,-5.8325,-5.8291,-5.8446,-5.847,-5.8578,-5.837,-5.8839,-5.8855,-5.8868,-5.9036,-5.9068,-5.9096,0,0,0,0,0,-5.8047,-5.8216,-5.8174,-5.8201,-5.832,-5.8435,-5.845,-5.8409,-5.8322,-5.8401,-5.8398,-5.8324,-5.8553,-5.8462,-5.8488,-5.8601,-5.8832,-5.885,-5.8867,-5.9023,-5.9062,-5.9095,0,0,0,0,0,0,-5.8204,-5.8219,-5.8172,-5.8355,-5.8395,-5.8411,-5.8509,-5.8452,-5.8516,-5.8498,-5.8443,-5.8451,-5.8609,-5.862,-5.8519,-5.88,-5.8678,-5.8701,-5.8787,-5.8824,-5.8853,-5.8846,-5.8379,0,0,0,0,0,-5.826,-5.8354,-5.8361,-5.8522,-5.8544,-5.8524,-5.8573,-5.8538,-5.8576,-5.8592,-5.8599,-5.8638,-5.8718,-5.8772,-5.8846,-5.9038,-5.904,-5.9128,-5.9157,-5.9182,-5.9202,-5.93,-5.9338,-5.8933,-5.8933,-5.8933,0,0,-5.8376,-5.8396,-5.8459,-5.8554,-5.8581,-5.8676,-5.8539,-5.8647,-5.8717,-5.8607,-5.8747,-5.8754,-5.8793,-5.8963,-5.9038,-5.8977,-5.9314,-5.9204,-5.9223,-5.923,-5.9322,-5.936,-5.9394,-5.8945,-5.8943,-5.8941,0,0,-5.8637,-5.8664,-5.8798,-5.8828,-5.8871,-5.8856,-5.8888,-5.8913,-5.8914,-5.9054,-5.8972,-5.9054,-5.9194,-5.9224,-5.9258,-5.9529,-5.9461,-5.9554,-5.9708,-5.9805,-5.9837,-5.9864,-5.9958,-5.9992,-5.9575,-5.9575,-5.9575,0,-5.8776,-5.8919,-5.8875,-5.8988,-5.903,-5.8937,-5.9071,-5.9102,-5.9166,-5.9197,-5.9128,-5.93,-5.932,-5.9494,-5.9559,-5.9591,-5.9624,-5.9549,-5.9836,-5.9864,-5.9889,-5.9977,-6.0012,-5.9586,-5.9585,-5.9584,-5.9583,0,-5.9086,-5.9187,-5.929,-5.9355,-5.941,-5.9533,-5.9504,-5.9565,-5.9525,-5.9516,-5.9658,-5.9679,-5.9753,-5.9793,-5.9755,-5.9961,-5.9921,-5.9846,-5.9721,-5.9939,-6.002,-6.0054,-5.9601,-5.9597,-5.9594,-5.9592,0,0,-5.9447,-5.9485,-5.9524,-5.9551,-5.959,-5.9666,-5.9784,-5.9858,-5.9909,-5.9957,-6.0052,-6.0172,-6.0102,-6.014,-6.0105,-6.019,-6.0398,-6.0103,-6.0103,-6.0154,-6.0622,-6.0677,-6.0717,-6.0355,-6.0362,-6.0367,-6.0618,0,-5.9704,-5.9909,-5.9871,-6.007,-6.0159,-6.0072,-6.0174,-6.0208,-6.0203,-6.0277,-6.027,-6.0355,-6.0258,-6.028,-6.0361,-6.0356,-6.0491,-6.0338,-6.044,-6.0444,-6.043,-6.076,-6.0818,-6.1055,-6.065,-6.0655,-6.0659,0,-6.0031,-6.009,-6.0298,-6.0321,-6.0357,-6.045,-6.0513,-6.0587,-6.0622,-6.0612,-6.0655,-6.0603,-6.0717,-6.0593,-6.0748,-6.0644,-6.0684,-6.0688,-6.0696,-6.0701,-6.0563,-6.0771,-6.1129,-6.1164,-6.071,-6.0706,-6.0702,0,-6.0269,-6.0402,-6.0542,-6.0568,-6.0599,-6.0666,-6.0682,-6.071,-6.0756,-6.0812,-6.084,-6.0908,-6.0945,-6.0997,-6.0963,-6.0877,-6.1123,-6.0997,-6.1114,-6.1116,-6.1168,-6.1165,-6.1534,-6.12,-6.1199,-6.1198,-6.1198,0,-6.0558,-6.0687,-6.0649,-6.0735,-6.0877,-6.0831,-6.0972,-6.0977,-6.1003,-6.1086,-6.1015,-6.1094,-6.1046,-6.1121,-6.1096,-6.1225,-6.1243,-6.1236,-6.1227,-6.1241,-6.1242,-6.1264,-6.1245,-6.1208,-6.1206,-6.1204,-6.1202,0,-6.0847,-6.0827,-6.0974,-6.0991,-6.0998,-6.1101,-6.1115,-6.1193,-6.1183,-6.1289,-6.1312,-6.1295,-6.1379,-6.1352,-6.1442,-6.1425,-6.1589,-6.156,-6.1577,-6.1569,-6.1687,-6.1675,-6.2081,-6.213,-6.1767,-6.1771,-6.1774,0,-6.1031,-6.1128,-6.1156,-6.1207,-6.1229,-6.1313,-6.1359,-6.1318,-6.1369,-6.1416,-6.1488,-6.1567,-6.1627,-6.1765,-6.1759,-6.1827,-6.1798,-6.1936,-6.1807,-6.1817,-6.1795,-6.1789,-6.1797,-6.196,-6.1964,-6.1968,-6.1971,0,-6.1358,-6.1343,-6.1414,-6.1482,-6.154,-6.1591,-6.1635,-6.1681,-6.1641,-6.1702,-6.1788,-6.1835,-6.1927,-6.2004,-6.2066,-6.2078,-6.2018,-6.2012,-6.2041,-6.2055,-6.2059,-6.2055,-6.1643,-6.2002,-6.1998,-6.1996,-6.1995,-6.1993,-6.1598,-6.1679,-6.1711,-6.1791,-6.1821,-6.1863,-6.1937,-6.1936,-6.2008,-6.208,-6.2051,-6.2149,-6.2179,-6.2255,-6.2277,-6.2351,-6.2297,-6.2342,-6.2353,-6.2363,-6.2377,-6.2051,-6.2362,-6.2361,-6.236,-6.236,-6.2359,0,-6.1918,-6.1934,-6.2009,-6.2073,-6.2136,-6.2075,-6.212,-6.2176,-6.2264,-6.2298,-6.2358,-6.2455,-6.253,-6.253,-6.2599,-6.2658,-6.2631,-6.2677,-6.267,-6.2673,-6.2423,-6.2388,-6.2697,-6.2697,-6.2697,-6.2697,-6.2697,-6.2697,-6.2092,-6.2226,-6.2214,-6.236,-6.2374,-6.2471,-6.2501,-6.2539,-6.2565,-6.2677,-6.2739,-6.2739,-6.2759,-6.2828,-6.2893,-6.289,-6.2917,-6.2973,-6.296,-6.2725,-6.2692,-6.2659,-6.2626,-6.298,-6.2981,-6.3204,-6.3206,-6.3208]},{"header":{"parameterUnit":"m.s-1","parameterCategory":1,"la1":30.2991,"la2":30.254,"lo1":-89.0895,"lo2":-89.0444,"dy":0.0017,"dx":0.0017,"nx":28,"ny":28,"refTime":"2023-11-02T09:00:00:Z","depth":0,"parameterNumber":3,"parameterNumberName":"V-component_of_WINDS"},"data":[0,0,0,0,0,0,0,0,0,0,0,0,0,0,0,0,0,0,0,0,0,0,0,0,0,0,0,0,0,0,0,0,0,0,0,0,0,0,0,0,0,0,0,0,0,0,0,0,0,0,0,0,0,0,0,0,0,0,-1.0848,-1.0849,0,-1.0917,-1.0918,-1.0918,-1.093,-1.0929,-1.0929,-1.0928,-1.1001,-1.1003,-1.1006,0,0,0,0,0,0,0,0,0,0,0,0,0,-1.0728,-1.073,-1.0848,-1.0849,-1.085,-1.0917,-1.0918,-1.0919,-1.093,-1.0929,-1.0929,-1.0928,-1.1,-1.1003,-1.1006,0,0,0,0,0,0,0,0,0,0,0,0,0,-1.0787,-1.0731,-1.0848,-1.0863,-1.0865,-1.0917,-1.0918,-1.0919,-1.093,-1.0929,-1.0928,-1.0927,-1.0999,-1.1003,-1.1007,-1.1048,0,0,-1.1018,-1.102,0,0,0,0,0,0,0,0,-1.0783,-1.0791,-1.086,-1.0862,-1.0865,-1.0914,-1.0902,-1.0962,-1.093,-1.0906,-1.0928,-1.0927,-1.0973,-1.0979,-1.0994,-1.1051,-1.1054,-1.1018,-1.1021,-1.1022,-1.1023,0,0,0,0,0,0,0,-1.0779,-1.0788,-1.0875,-1.0861,-1.0864,-1.0867,-1.0875,-1.0913,-1.0944,-1.0908,-1.0909,-1.0917,-1.0974,-1.099,-1.0996,-1.1055,-1.1018,-1.1022,-1.1024,-1.1025,-1.1149,-1.115,0,0,0,0,0,0,-1.0772,-1.0785,-1.0873,-1.0877,-1.0821,-1.087,-1.0878,-1.0899,-1.0943,-1.0949,-1.0917,-1.0917,-1.0984,-1.0991,-1.0998,-1.1049,-1.1022,-1.1026,-1.1028,-1.1148,-1.115,-1.1151,0,0,0,0,0,0,-1.0769,-1.078,-1.087,-1.0831,-1.0843,-1.0873,-1.0896,-1.0901,-1.0917,-1.095,-1.0956,-1.0928,-1.0984,-1.0993,-1.1035,-1.1051,-1.1027,-1.1031,-1.1147,-1.1149,-1.115,-1.115,0,0,0,0,0,0,-1.0766,-1.0779,-1.0794,-1.0832,-1.0845,-1.0905,-1.0897,-1.0903,-1.0923,-1.0923,-1.0962,-1.0968,-1.0984,-1.1029,-1.1039,-1.1056,-1.1034,-1.1146,-1.1148,-1.115,-1.1149,-1.1152,-1.1154,0,0,0,0,0,-1.0762,-1.0792,-1.0795,-1.0806,-1.0865,-1.0906,-1.0914,-1.0931,-1.0924,-1.094,-1.0962,-1.0966,-1.1048,-1.1034,-1.1044,-1.1063,-1.1145,-1.1147,-1.1149,-1.1148,-1.1151,-1.1154,0,0,0,0,0,0,-1.0758,-1.0798,-1.0801,-1.0845,-1.0872,-1.0908,-1.0929,-1.0935,-1.0965,-1.0964,-1.0985,-1.0993,-1.1034,-1.1053,-1.1036,-1.1105,-1.1096,-1.1101,-1.1091,-1.1094,-1.1097,-1.1091,-1.1037,0,0,0,0,0,-1.0762,-1.0791,-1.0825,-1.086,-1.0874,-1.0899,-1.0918,-1.0928,-1.0958,-1.0969,-1.0994,-1.1023,-1.1055,-1.1076,-1.1107,-1.1152,-1.116,-1.117,-1.1172,-1.1174,-1.1178,-1.1202,-1.1207,-1.1158,-1.1158,-1.1158,0,0,-1.0771,-1.0796,-1.0814,-1.086,-1.0882,-1.0913,-1.0909,-1.0941,-1.0964,-1.0975,-1.1015,-1.1034,-1.1068,-1.1111,-1.1132,-1.1128,-1.1193,-1.1177,-1.1178,-1.1181,-1.1205,-1.121,-1.1214,-1.116,-1.116,-1.1159,0,0,-1.0802,-1.0825,-1.0856,-1.0878,-1.0912,-1.0928,-1.0936,-1.0971,-1.0984,-1.1025,-1.1033,-1.1061,-1.1116,-1.1139,-1.1158,-1.1198,-1.1203,-1.1208,-1.1221,-1.1244,-1.1248,-1.1251,-1.1265,-1.127,-1.1211,-1.1211,-1.1211,0,-1.081,-1.0855,-1.0872,-1.0904,-1.0924,-1.0934,-1.0966,-1.0987,-1.1029,-1.1043,-1.1038,-1.1106,-1.113,-1.1178,-1.1188,-1.1203,-1.1212,-1.1203,-1.1246,-1.125,-1.1253,-1.1266,-1.1272,-1.1211,-1.1211,-1.1211,-1.1211,0,-1.0862,-1.0893,-1.0915,-1.0954,-1.0977,-1.1009,-1.103,-1.1051,-1.106,-1.1077,-1.1118,-1.1147,-1.1184,-1.1196,-1.1205,-1.1246,-1.1242,-1.1242,-1.1233,-1.1258,-1.1271,-1.1276,-1.1212,-1.1212,-1.1212,-1.1212,0,0,-1.0894,-1.0941,-1.0949,-1.0966,-1.1003,-1.1028,-1.106,-1.1096,-1.1113,-1.1142,-1.1169,-1.1215,-1.1214,-1.1236,-1.1248,-1.1268,-1.1297,-1.1265,-1.1266,-1.127,-1.1343,-1.1343,-1.1349,-1.1301,-1.1302,-1.1303,-1.134,0,-1.093,-1.0986,-1.1002,-1.105,-1.1079,-1.1089,-1.1117,-1.1143,-1.1159,-1.1187,-1.1206,-1.1238,-1.1234,-1.1247,-1.1268,-1.1289,-1.1312,-1.1287,-1.1327,-1.1328,-1.1318,-1.1355,-1.1356,-1.139,-1.1345,-1.1346,-1.1347,0,-1.0979,-1.1007,-1.1058,-1.1091,-1.1103,-1.1128,-1.1161,-1.1187,-1.1217,-1.1228,-1.1251,-1.1261,-1.1295,-1.1285,-1.1332,-1.1315,-1.1332,-1.1345,-1.1347,-1.1351,-1.1339,-1.1361,-1.1401,-1.1406,-1.1355,-1.1354,-1.1354,0,-1.0996,-1.1047,-1.1084,-1.1099,-1.1138,-1.1155,-1.1172,-1.1201,-1.1221,-1.125,-1.1263,-1.1296,-1.1314,-1.134,-1.1359,-1.1349,-1.1405,-1.1396,-1.1415,-1.1414,-1.1426,-1.1425,-1.147,-1.1437,-1.1437,-1.1437,-1.1437,0,-1.1035,-1.1065,-1.1092,-1.1115,-1.1149,-1.1167,-1.1201,-1.1219,-1.1244,-1.127,-1.1281,-1.1306,-1.1329,-1.1357,-1.1372,-1.1409,-1.1417,-1.1427,-1.1431,-1.1426,-1.1425,-1.1438,-1.1436,-1.1439,-1.1438,-1.1438,-1.1438,0,-1.106,-1.1079,-1.112,-1.1153,-1.1162,-1.1186,-1.1215,-1.1237,-1.1254,-1.1287,-1.1296,-1.1322,-1.1356,-1.1377,-1.142,-1.143,-1.147,-1.1473,-1.146,-1.1461,-1.1479,-1.1477,-1.1533,-1.1542,-1.1504,-1.1504,-1.1505,0,-1.1083,-1.1106,-1.1142,-1.1159,-1.1176,-1.1206,-1.1225,-1.1244,-1.1264,-1.1299,-1.1317,-1.1351,-1.1379,-1.1432,-1.1456,-1.1489,-1.1493,-1.151,-1.1498,-1.1492,-1.1492,-1.1491,-1.1493,-1.1512,-1.1512,-1.1513,-1.1513,0,-1.1121,-1.1129,-1.1157,-1.1188,-1.1211,-1.1237,-1.1263,-1.1277,-1.13,-1.1322,-1.1356,-1.1377,-1.142,-1.1454,-1.1489,-1.1507,-1.1514,-1.1516,-1.1523,-1.1518,-1.1509,-1.1514,-1.1465,-1.1515,-1.1515,-1.1515,-1.1515,-1.1515,-1.1146,-1.1167,-1.1195,-1.1225,-1.1246,-1.127,-1.1292,-1.1311,-1.1339,-1.1375,-1.1384,-1.1419,-1.1448,-1.1495,-1.1514,-1.1542,-1.154,-1.1549,-1.1551,-1.1553,-1.1553,-1.1504,-1.1549,-1.1549,-1.1549,-1.1549,-1.1549,0,-1.1185,-1.1203,-1.123,-1.1265,-1.1289,-1.1292,-1.1321,-1.1341,-1.1371,-1.1397,-1.1424,-1.1462,-1.1495,-1.152,-1.1554,-1.1571,-1.1575,-1.158,-1.1578,-1.1582,-1.1553,-1.1544,-1.1576,-1.1576,-1.1576,-1.1576,-1.1576,-1.1576,-1.1207,-1.1243,-1.1254,-1.13,-1.1318,-1.1352,-1.1368,-1.1389,-1.141,-1.1452,-1.1479,-1.1495,-1.1521,-1.1556,-1.1586,-1.1593,-1.1604,-1.1608,-1.1615,-1.1588,-1.1585,-1.1582,-1.1574,-1.161,-1.161,-1.1642,-1.1642,-1.1643]}]]